|
NORAD ID: 37535 Int'l Code: 1993-036BNQ
Perigee: 733.9 km
Apogee: 787.0 km
Inclination: 74.0 °
Period: 99.9 minutes
Semi major axis: 7131 km
Launch date: June 16, 1993
Source: Commonwealth of Independent States (former USSR) (CIS)
Note: This is SATELLITE DEBRIS
Two Line Element Set (TLE):
1 37535U 93036BNQ 13142.63498137 .00001271 00000-0 39582-3 0 3463
2 37535 074.0301 010.4776 0037183 190.7304 190.8911 14.41573179189774
Source:
NASA's NSSDC Master Catalog entry for COSMOS 2251 DEB
|